Weather Service Report


143 
ASUS46 KSEW 230010
RWRWA 

WASHINGTON REGIONAL WEATHER ROUNDUP
NATIONAL WEATHER SERVICE SEATTLE WA
400 PM PST SUN JAN 22 2017

NOTE:"FAIR" INDICATES FEW OR NO CLOUDS BELOW 12,000 FEET WITH NO 
SIGNIFICANT WEATHER AND/OR OBSTRUCTIONS TO VISIBILITY.

WAZ507-509-555>559-230100-
SEATTLE, TACOMA, EVERETT, AND VICINITY
  
CITY           SKY/WX    TMP DP  RH WIND       PRES   REMARKS
EVERETT        CLOUDY    43  38  82 VRB3      29.57R                  
6HR MIN TEMP:  42; 6HR MAX TEMP:  46; 6HR PCP:  0.09;                

BOEING FIELD   CLOUDY    46  39  76 CALM      29.57R                  
6HR MIN TEMP:  44; 6HR MAX TEMP:  46; 6HR PCP:  0.04;                

RENTON         CLOUDY    46  39  76 CALM      29.57R                  
6HR MIN TEMP:  44; 6HR MAX TEMP:  48; 6HR PCP: TRACE;                

SEATAC AIRPORT CLOUDY    45  38  76 SE10      29.56S                  
6HR MIN TEMP:  43; 6HR MAX TEMP:  46; 6HR PCP:  0.02;                

JBLM-MCCHORD   CLOUDY    48  37  65 SE6       29.55S                  
6HR MIN TEMP:  40; 6HR MAX TEMP:  49; 6HR PCP:  0.01;                

PUYALLUP         N/A     48  32  53 VRB3      29.56R                  
BREMERTON      CLOUDY    43  43 100 N5        29.59S                  
6HR MIN TEMP:  39; 6HR MAX TEMP:  45; 6HR PCP:  0.05;                

JBLM-FT LEWIS  CLOUDY    47  41  78 E6        29.54S                  
6HR MIN TEMP:  40; 6HR MAX TEMP:  49; 6HR PCP: TRACE;                

TACOMA NARROWS CLOUDY    46  40  79 CALM      29.55S                  
6HR MIN TEMP:  42; 6HR MAX TEMP:  46; 6HR PCP: TRACE;                

$$
 
WAZ001-503-506-510-514-515-230100-
NORTH INTERIOR
  
CITY           SKY/WX    TMP DP  RH WIND       PRES   REMARKS
BELLINGHAM     CLOUDY    44  39  82 NE7       29.56R                  
6HR MIN TEMP:  42; 6HR MAX TEMP:  46; 6HR PCP:  0.03;                

FRIDAY HARBOR  CLOUDY    46  39  76 SE13      29.55R                  
6HR MIN TEMP:  46; 6HR MAX TEMP:  47;                                

EASTSOUND      CLOUDY    46  37  71 E3        29.54R                  
PORT ANGELES   CLOUDY    43  41  93 S3        29.53R                  
6HR MIN TEMP:  41; 6HR MAX TEMP:  45; 6HR PCP: TRACE;                

EDIZ HOOK      MOCLDY    45  41  87 SW3       29.53R                  
6HR MIN TEMP:  43; 6HR MAX TEMP:  46;                                

PORT TOWNSEND  FAIR      45  41  87 SE13G18   29.55R                  
NAS WHIDBEY    CLOUDY    47  37  68 SE17      29.58R                  
6HR MIN TEMP:  45; 6HR MAX TEMP:  47; 6HR PCP:  0.04;                

ARLINGTON      NOT AVBL                                               
BURLINGTON     CLOUDY    46  37  71 E9        29.57R                  
$$
 
WAZ020-022-039-040-504-511-512-230100-
SOUTHWEST INTERIOR
  
CITY           SKY/WX    TMP DP  RH WIND       PRES   REMARKS
SHELTON        CLOUDY    47  37  68 SE6       29.52R                  
6HR MIN TEMP:  42; 6HR MAX TEMP:  49;                                

OLYMPIA        MOCLDY    48  35  60 SE9       29.54R                  
6HR MIN TEMP:  40; 6HR MAX TEMP:  50;                                

CHEHALIS       FAIR      48  36  61 SE10      29.53S                  
KELSO          CLOUDY    50  36  58 SE7       29.55R                  
6HR MIN TEMP:  45; 6HR MAX TEMP:  51;                                

VANCOUVER      CLOUDY    45  37  73 E7        29.56R                  
6HR MIN TEMP:  42; 6HR MAX TEMP:  46;                                

SCAPPOOSE, OR  MOCLDY    48  35  60 S9        29.54R                  
6HR MIN TEMP:  43; 6HR MAX TEMP:  50;                                

PORTLAND, OR   MOCLDY    44  37  76 E10       29.57R                  
6HR MIN TEMP:  42; 6HR MAX TEMP:  46;                                

$$
 
WAZ021-516-517-230100-
WASHINGTON COAST
  
CITY           SKY/WX    TMP DP  RH WIND       PRES   REMARKS
FORKS          MOCLDY    45  39  79 SE3       29.48R                  
6HR MIN TEMP:  42; 6HR MAX TEMP:  47; 6HR PCP:  0.04;                

HOQUIAM        LGT RAIN  45  42  89 NE14      29.49S                  
6HR MIN TEMP:  44; 6HR MAX TEMP:  47; 6HR PCP:  0.04;                

ASTORIA, OR    LGT RAIN  50  34  54 S20G28    29.50R                  
6HR MIN TEMP:  45; 6HR MAX TEMP:  51; 6HR PCP:  0.01;                

$$
 
WAZ019-023-024-040-567>569-230100-
CASCADE MOUNTAINS AND COLUMBIA GORGE
  
CITY           SKY/WX    TMP DP  RH WIND       PRES   REMARKS
STAMPEDE PASS  CLOUDY    30  29  96 CALM      29.49S FOG              
TROUTDALE, OR  MOCLDY    44  37  76 E16       29.56R                  
6HR MIN TEMP:  41; 6HR MAX TEMP:  46;                                

THE DALLES, OR CLEAR     38  35  89 CALM      29.62R FOG              
6HR MIN TEMP:  35; 6HR MAX TEMP:  41; 6HR PCP:  0.04;                

$$

WAZ026-027-041>044-520-521-230100-
EAST SLOPES
  
CITY           SKY/WX    TMP DP  RH WIND       PRES   REMARKS
OMAK           MIX PCPN  34  32  92 N3        29.60S VSB 1/4          
6HR MIN TEMP:  34; 6HR MAX TEMP:  36; 6HR PCP:  0.08;                

WENATCHEE      FOG       32  32 100 W3        29.58S VSB<1/4          
6HR MIN TEMP:  32; 6HR MAX TEMP:  34; 6HR PCP:  0.22;                

ELLENSBURG     FOG       35  32  88 S5        29.56R VSB 1/2          
6HR MIN TEMP:  34; 6HR MAX TEMP:  36; 6HR PCP:  0.04;                

YAKIMA         CLOUDY    37  34  89 CALM      29.59S                  
6HR MIN TEMP:  34; 6HR MAX TEMP:  38; 6HR PCP:  0.18;                

$$

WAZ028-034-035-230100-
COLUMBIA BASIN
  
CITY           SKY/WX    TMP DP  RH WIND       PRES   REMARKS
EPHRATA        FLURRIES  33  29  85 N13       29.56F WCI  24          
6HR MIN TEMP:  33; 6HR MAX TEMP:  37; 6HR PCP:  0.21;                

MOSES LAKE     LGT RAIN  34  32  92 N9        29.57F                  
6HR MIN TEMP:  34; 6HR MAX TEMP:  38; 6HR PCP:  0.23;                

PASCO          CLOUDY    36  34  92 NW3       29.63R                  
6HR MIN TEMP:  28; 6HR MAX TEMP:  36; 6HR PCP:  0.02;                

HERMISTON, OR  CLOUDY    36  34  92 W8        29.62R                  
6HR MIN TEMP:  36; 6HR MAX TEMP:  45; 6HR PCP:  0.02;                

$$

WAZ036>038-230100-
NORTHEAST WASHINGTON
  
CITY           SKY/WX    TMP DP  RH WIND       PRES   REMARKS
SPOKANE GEIGER LGT SNOW  35  32  88 SE6       29.57S FOG              
6HR MIN TEMP:  35; 6HR MAX TEMP:  41; 6HR PCP:  0.02;                

SPOKANE FELTS  LGT RAIN  38  35  89 CALM      29.59S                  
6HR MIN TEMP:  37; 6HR MAX TEMP:  42; 6HR PCP:  0.01;                

FAIRCHILD AFB  LGT SNOW  34  32  93 SE7       29.56S FOG              
6HR MIN TEMP:  33; 6HR MAX TEMP:  38; 6HR PCP:  0.02;                

COEURDALENE,ID LGT RAIN  37  32  82 SW3       29.59S                  
6HR MIN TEMP:  34; 6HR MAX TEMP:  39; 6HR PCP: TRACE;                

DEER PARK      LGT RAIN  37  31  78 SE7       29.59R                  
6HR MIN TEMP:  36; 6HR MAX TEMP:  42; 6HR PCP:  0.02;                

$$

WAZ029>033-230100-
SOUTHEAST WASHINGTON
  
CITY           SKY/WX    TMP DP  RH WIND       PRES   REMARKS
PULLMAN        CLOUDY    35  32  88 E15       29.57F WCI  25          
6HR MIN TEMP:  33; 6HR MAX TEMP:  38; 6HR PCP:  0.11;                

LEWISTON, ID   CLOUDY    37  30  75 S7        29.59R                  
6HR MIN TEMP:  35; 6HR MAX TEMP:  40; 6HR PCP: TRACE;                

WALLA WALLA    LGT RAIN  34  32  92 S9        29.61R FOG              
6HR MIN TEMP:  34; 6HR MAX TEMP:  47; 6HR PCP:  0.02;                

PENDLETON, OR  LGT RAIN  34  33  96 E6        29.59R FOG              
6HR MIN TEMP:  34; 6HR MAX TEMP:  47; 6HR PCP: TRACE;                

$$
  

Return to Home page


Western Regional Climate Center, wrcc@dri.edu